Theta_e
309 310 310 311 311 311 311 311 311 312 312 312 312 313 313 313 312 312 313 314 317 317 315 314 315 311 309 309 310 312 312 313 314 316 317 317 319 321 325 328 332 333 354 355 350
307 308 308 307 307 309 310 310 310 311 311 311 312 312 312 312 312 313 310 311 312 318 318 318 316 311 309 309 309 310 312 313 314 315 315 316 316 318 321 332 330 333 356 354 351
306 307 309 309 309 309 308 308 310 311 311 311 310 311 311 311 313 313 317 318 316 317 319 316 315 311 310 310 309 310 312 314 315 315 316 316 316 317 318 320 328 328 352 351 347
308 308 309 309 309 308 308 308 309 310 310 310 310 310 310 311 313 317 315 316 320 318 319 317 314 310 309 310 310 310 312 314 315 316 316 316 316 318 317 318 320 326 344 345 344
307 307 308 308 308 308 308 308 308 308 309 309 309 310 311 314 314 312 315 316 321 322 319 316 313 311 310 310 310 311 311 314 315 316 315 315 316 316 316 317 319 331 339 341 340
307 307 307 307 306 307 308 307 307 307 308 309 309 310 312 313 310 313 314 317 316 317 317 315 312 311 311 311 309 311 312 313 314 314 315 316 316 315 316 316 320 327 333 339 338
307 307 305 306 305 307 307 306 306 307 308 309 309 310 311 311 312 316 316 317 316 315 317 315 314 314 313 311 311 311 311 312 313 314 314 315 314 315 316 316 318 321 324 331 342
306 304 304 304 305 305 306 306 306 306 308 309 310 312 314 311 312 313 314 315 319 317 317 318 318 318 316 315 316 314 311 310 311 314 315 315 315 315 315 315 316 320 321 331 331
304 303 304 304 304 304 304 304 305 305 309 311 312 314 314 315 316 316 315 318 320 321 319 319 319 317 317 316 314 313 313 311 312 313 314 315 315 315 315 316 315 315 316 318 328
304 304 304 303 303 304 303 304 303 308 310 312 313 316 315 315 317 319 318 318 319 320 321 321 318 318 317 314 315 314 312 312 312 313 313 312 315 315 315 316 315 316 316 315 316
304 303 303 303 303 303 305 305 309 312 313 317 317 317 316 316 318 319 318 319 319 320 321 320 320 320 319 316 314 315 314 313 314 315 313 313 313 314 314 314 314 314 315 316 315
304 303 303 302 302 302 304 304 309 310 314 314 316 317 316 317 319 318 319 320 321 323 321 321 322 319 318 317 314 314 315 314 315 316 314 314 314 315 314 314 314 314 314 314 316
301 301 302 302 301 306 306 309 312 314 316 314 314 316 316 317 320 319 320 320 322 322 321 321 321 320 317 316 315 314 314 315 315 317 319 318 317 318 317 316 315 314 314 314 315
300 300 302 303 303 305 303 305 310 311 315 313 313 315 314 316 318 318 318 320 322 323 319 320 320 319 315 315 314 314 315 316 316 316 317 318 317 318 319 317 317 315 313 314 315
300 301 302 303 302 302 304 306 309 311 317 313 315 316 315 317 319 319 318 321 323 322 319 320 321 320 315 314 314 315 316 315 316 315 318 317 316 316 319 321 321 325 323 322 314
299 299 301 302 303 304 304 306 308 315 316 312 314 314 317 315 317 320 319 320 319 320 320 320 318 317 316 315 315 315 315 315 314 314 316 316 317 316 317 319 326 328 322 324 322
299 299 300 302 303 303 305 307 314 317 310 312 312 312 318 323 322 324 324 321 320 321 321 320 319 317 316 314 315 314 314 315 316 316 317 317 318 317 325 328 329 329 324 323 323
299 300 303 304 304 306 306 313 317 314 312 311 312 313 314 321 324 322 321 328 320 320 321 322 320 317 317 315 315 314 314 314 318 320 319 320 320 318 328 328 328 326 326 327 323
300 303 304 308 311 309 311 314 312 312 312 312 314 315 316 316 323 324 324 325 325 323 323 321 320 318 317 315 315 315 315 314 316 323 323 322 329 328 326 326 325 327 327 327 328
303 304 306 307 308 308 313 315 314 312 313 312 314 315 316 316 322 323 325 324 327 324 323 326 327 321 317 315 314 315 315 315 315 325 325 322 328 332 328 326 325 327 327 326 325
303 304 305 307 307 311 311 311 312 312 313 315 317 319 320 323 322 322 324 324 327 325 324 327 326 327 325 323 315 315 315 316 321 325 324 327 336 331 334 333 328 328 327 323 321
303 305 304 305 307 308 311 309 310 313 314 313 315 318 318 319 323 324 323 324 323 324 326 325 326 327 326 324 322 316 316 321 326 330 332 328 331 328 329 327 327 331 328 321 319
303 304 307 306 307 308 308 310 312 312 312 316 316 317 317 321 324 324 323 323 322 322 326 325 328 329 328 326 324 317 318 320 327 328 332 332 331 328 328 327 327 328 326 322 319
304 307 305 307 304 308 310 312 312 308 311 315 318 318 318 320 322 325 323 322 321 320 321 325 327 328 327 327 323 319 319 323 324 329 331 331 332 331 328 329 328 327 328 321 320
305 307 306 306 306 306 309 310 311 313 311 314 316 317 317 318 321 322 324 323 321 321 323 325 330 328 328 329 328 323 319 327 327 326 328 329 331 328 325 327 327 327 323 320 319
305 304 305 305 304 307 309 310 313 312 314 314 313 314 318 320 323 324 323 322 322 322 322 326 329 325 329 327 328 328 326 328 328 328 328 323 329 325 324 324 326 327 321 319 318
302 303 305 304 305 307 309 310 311 311 312 313 313 315 314 315 315 315 318 319 321 323 325 325 330 327 327 327 327 330 329 329 327 329 327 331 329 325 326 323 322 323 320 316 314
Wind_Speed
17 17 18 18 19 19 19 19 19 20 19 20 21 22 24 26 31 29 20 25 13 17 18 15 12 17 15 5 8 4 9 13 18 15 13 12 14 16 12 16 5 3 6 14 17
20 19 19 18 18 18 18 20 20 19 18 18 19 20 21 24 31 28 42 35 33 19 11 13 10 11 7 9 5 7 8 19 10 13 14 14 14 14 12 7 13 13 12 18 16
21 20 22 23 23 23 22 21 22 21 20 19 18 18 18 19 9 9 8 14 36 30 26 14 16 11 10 8 7 6 18 11 13 18 20 18 21 9 8 9 4 11 19 14 15
26 26 24 25 24 24 25 24 22 22 21 20 19 18 16 10 6 2 9 16 10 31 24 18 7 8 7 13 13 14 19 17 18 17 16 13 12 16 9 9 8 10 21 16 18
28 28 28 29 27 25 25 25 24 22 22 20 18 16 10 7 13 19 16 13 12 25 24 17 12 10 14 10 12 19 15 18 21 21 18 12 18 18 14 10 9 8 15 17 17
29 29 30 29 30 26 26 27 25 22 22 21 18 14 9 17 17 22 24 15 13 24 21 17 9 12 7 14 12 9 13 18 14 18 18 16 15 7 20 9 9 7 2 18 22
29 29 33 32 31 28 30 31 29 27 25 23 18 15 14 30 11 15 19 24 25 27 16 27 29 11 12 9 12 13 16 14 15 10 8 7 10 20 14 8 9 2 1 6 20
27 32 30 30 28 29 31 32 33 32 26 22 19 18 12 29 32 36 32 26 31 30 27 25 30 17 9 8 9 10 8 13 10 7 11 7 14 10 9 9 11 10 5 7 8
30 31 30 29 30 31 34 36 40 34 24 18 14 11 15 19 15 37 37 20 26 26 27 26 18 12 11 8 8 7 9 9 7 11 8 14 12 10 9 8 12 12 7 5 7
30 32 33 34 35 35 37 40 37 23 11 10 14 7 9 14 15 10 26 27 16 20 16 18 10 13 5 7 13 11 10 11 12 14 13 10 13 11 11 9 9 8 19 9 8
31 33 34 35 37 37 32 17 3 3 8 12 15 12 16 24 23 15 18 21 19 17 20 23 12 15 18 16 13 15 16 13 18 15 11 15 9 10 12 10 10 9 9 8 11
31 33 35 37 40 41 29 6 11 12 16 25 26 30 36 33 17 26 27 16 17 21 20 11 23 18 16 19 18 19 19 18 11 18 12 10 10 10 11 10 15 14 12 10 7
36 36 37 35 44 21 8 17 28 28 9 25 26 30 27 23 27 27 20 23 17 20 25 24 14 20 20 19 21 20 19 16 10 8 4 5 4 5 7 8 9 10 10 11 10
38 38 37 35 21 17 22 25 20 26 7 15 10 15 19 16 21 27 28 24 16 23 18 22 19 22 24 22 20 19 20 20 13 6 4 3 6 8 7 12 8 11 10 11 10
42 42 38 27 22 12 15 22 23 9 5 10 9 11 12 23 6 22 27 23 25 22 17 23 22 26 23 24 21 17 15 16 10 6 2 8 1 7 5 5 3 6 8 9 9
47 48 45 34 21 35 33 28 21 4 11 8 5 7 10 22 15 3 16 20 17 22 24 26 17 20 23 21 23 19 8 7 9 4 5 6 6 7 7 7 5 4 6 9 9
52 56 53 39 15 19 20 11 5 8 7 11 13 15 3 10 9 5 10 22 19 20 20 19 27 21 20 19 21 12 6 2 2 4 5 11 10 11 5 7 7 8 8 6 10
55 54 43 28 26 24 14 5 11 9 20 19 27 23 20 1 9 8 7 16 23 16 12 15 15 24 20 20 8 10 9 5 8 5 10 13 9 7 8 8 7 6 5 6 9
49 36 28 20 38 24 8 11 7 14 18 24 26 20 15 11 10 5 9 14 8 20 14 12 19 13 20 16 10 9 10 8 3 2 2 3 5 7 8 8 8 8 8 10 12
32 29 10 30 20 25 2 4 6 12 21 24 24 13 23 21 4 3 6 2 14 23 6 6 5 15 15 12 14 14 9 9 3 6 5 0 5 1 5 7 15 6 12 13 15
18 8 7 36 18 1 2 5 20 21 23 13 12 11 16 19 3 4 1 3 6 16 9 5 3 5 7 4 11 7 10 6 4 4 6 4 3 9 4 7 12 15 11 12 11
8 6 19 23 5 3 5 11 16 22 19 14 10 16 16 16 7 8 10 7 9 11 10 5 4 4 4 14 15 9 8 7 5 1 3 4 2 5 3 11 18 9 8 7 9
7 5 4 14 8 9 8 12 13 15 17 5 6 8 5 6 4 5 8 10 15 5 10 7 5 5 9 10 15 9 8 6 8 4 6 5 1 3 8 8 17 14 1 2 10
4 5 4 3 8 13 11 8 15 16 18 9 3 6 10 6 7 4 3 7 14 11 11 8 4 6 7 2 2 13 10 11 8 4 4 4 9 8 9 11 4 4 3 5 14
1 3 4 7 11 20 14 9 20 10 6 11 7 14 6 3 3 1 3 7 4 6 9 5 6 6 3 9 7 3 7 10 6 6 5 12 17 12 10 17 8 8 2 15 15
4 4 3 9 16 17 10 7 19 21 9 13 13 15 9 0 9 6 4 3 2 5 9 8 6 3 3 6 5 3 8 8 11 2 8 10 11 10 14 17 13 9 11 16 15
7 9 3 7 11 12 9 18 22 20 8 12 13 9 8 9 13 11 8 2 0 2 9 11 5 4 2 5 7 4 3 7 14 13 11 13 9 14 16 14 14 11 11 15 14
Wind_Direction
342 339 335 330 327 324 321 318 316 314 311 309 308 309 310 311 308 302 255 241 230 258 230 276 278 227 216 231 255 254 233 238 241 242 243 277 273 277 285 228 248 301 93 138 134
342 335 331 326 317 312 309 307 306 306 306 307 306 308 310 316 310 280 273 255 247 220 216 212 248 232 195 201 243 205 226 234 245 255 263 270 283 288 315 309 235 251 97 129 132
343 341 336 330 326 322 315 310 311 310 310 308 309 309 315 327 293 250 310 265 233 219 226 228 232 259 218 216 216 254 241 244 239 254 266 276 282 297 298 291 269 215 145 138 130
340 336 336 332 328 321 319 314 306 307 306 307 308 309 311 318 267 151 12 356 208 207 210 228 251 248 243 220 220 239 240 245 254 260 260 263 282 283 274 257 288 300 146 137 143
337 335 331 332 328 323 320 315 309 300 303 302 302 305 315 236 242 234 277 327 161 189 200 210 206 225 240 224 222 229 242 236 238 247 253 267 271 276 283 289 290 18 126 137 138
330 331 330 325 324 319 315 312 306 297 295 295 292 291 260 260 265 255 252 222 192 188 211 208 218 214 254 239 235 236 240 245 239 228 236 249 261 297 271 289 301 105 84 156 152
334 333 331 327 326 319 315 313 308 298 293 289 282 268 248 241 251 256 248 243 202 195 202 211 226 239 222 260 245 242 254 268 243 238 230 226 260 248 273 288 286 251 207 225 172
332 333 333 327 326 321 319 314 304 297 291 287 282 262 250 262 262 268 255 265 212 208 214 219 221 241 252 272 281 255 256 250 258 235 226 187 256 263 257 276 281 275 201 219 187
332 334 333 329 324 320 317 311 300 294 284 278 261 222 269 279 232 248 240 228 220 210 216 232 242 237 251 250 272 269 241 244 246 255 232 198 242 251 266 255 257 266 240 212 248
330 329 329 328 325 322 321 316 307 293 268 235 233 233 257 249 231 243 223 227 226 198 199 224 227 233 228 217 227 233 227 236 247 228 238 242 229 222 231 243 245 251 262 233 214
327 328 328 325 322 318 321 335 329 126 215 202 193 217 277 260 269 208 194 204 224 194 204 209 211 215 209 224 232 244 245 226 230 239 201 230 223 212 213 221 235 244 245 267 237
326 327 326 326 322 319 301 246 240 277 293 220 239 235 235 259 278 291 183 190 217 210 194 191 219 213 219 223 227 240 247 253 261 227 205 207 225 223 224 211 210 219 234 238 257
330 328 326 326 324 322 250 228 281 285 272 268 244 240 237 229 239 250 201 196 222 214 199 205 205 208 219 221 221 228 242 252 247 289 191 178 267 257 259 218 216 207 204 225 216
330 327 324 325 319 318 296 286 314 313 273 290 247 247 212 198 251 229 233 188 214 223 211 223 225 203 215 225 213 226 226 242 258 266 228 164 241 251 238 242 245 240 210 215 229
328 323 318 314 286 271 267 301 319 321 279 275 279 150 139 175 191 205 212 196 202 204 208 222 199 223 212 219 226 228 215 214 244 261 204 290 93 256 260 186 175 39 63 13 261
327 323 320 310 263 256 282 293 301 234 240 261 314 300 143 211 241 329 205 198 210 212 211 224 222 217 227 213 223 232 219 183 201 203 245 227 234 261 242 215 116 78 76 67 71
327 324 313 291 259 281 277 259 232 226 268 260 269 320 228 190 245 351 288 205 201 208 230 224 226 232 225 219 209 209 132 220 227 211 216 223 226 228 178 134 143 140 129 114 100
329 322 313 288 276 273 245 226 228 241 228 276 298 314 320 114 175 158 231 236 209 212 210 229 228 217 224 225 180 206 166 159 180 173 228 232 248 272 106 83 91 98 82 32 93
331 322 312 327 343 247 218 223 223 239 267 291 310 322 300 323 335 206 202 213 236 251 210 214 247 226 227 208 177 192 201 190 160 220 103 193 144 66 89 92 85 71 25 71 67
324 310 295 2 10 22 185 292 274 290 293 297 291 266 288 299 155 307 215 212 207 223 188 312 300 231 218 193 225 186 162 210 201 181 221 277 78 245 40 7 36 59 82 62 55
322 315 336 343 327 43 222 274 316 321 314 303 285 290 287 290 145 166 221 304 227 197 215 279 134 306 333 252 193 188 192 189 130 125 170 128 126 359 41 73 54 25 11 90 79
310 307 321 356 28 338 326 298 305 315 315 303 262 255 247 286 231 183 188 194 203 184 197 190 148 242 287 293 300 193 180 145 125 247 70 103 91 334 49 118 88 41 342 100 116
312 283 55 19 7 336 323 316 308 330 322 290 301 212 233 247 218 226 203 146 138 124 169 200 168 113 315 294 268 196 189 146 106 96 167 124 212 66 95 101 133 163 203 178 122
299 313 317 322 344 328 322 323 335 317 312 262 305 32 358 350 240 193 225 162 173 157 179 327 162 144 190 153 230 195 181 148 124 118 142 152 151 161 115 108 117 351 326 233 99
299 328 342 316 331 321 332 307 320 327 291 10 18 5 28 265 225 30 209 115 162 211 151 237 172 206 192 22 344 27 176 123 119 147 142 165 156 173 158 118 83 32 210 114 104
343 326 323 302 310 329 340 331 336 331 347 1 356 336 351 101 13 123 316 201 220 184 167 217 165 81 116 39 346 356 14 135 123 66 6 151 128 158 132 122 134 144 84 79 77
316 286 270 304 320 331 332 339 334 335 302 9 0 333 21 358 327 310 310 9 242 225 206 189 132 124 207 122 338 313 78 9 90 111 196 99 111 137 115 99 94 120 107 85 73